Location: Adlershof
(52.4365°N, 13.5478°E)
Time: 04:44:33
(UTC+00:00)

Daily predictions for brighter satellites

Satellite Brightness Start Highest point End
(mag) Time Altitude Azimuth Time Altitude Azimuth Time Altitude Azimuth
STARLINK-1311 4.3 00:02:53 20° SE 00:02:53 20° SE 00:05:07 10° E
STARLINK-42 4.1 00:02:33 24° SSE 00:02:55 25° SSE 00:05:35 10° E
Cosmos 2084 Rocket 3.7 00:00:06 10° NW 00:04:28 54° SW 00:08:09 14° SSE
STARLINK-1390 3.6 00:00:52 10° W 00:04:54 83° N 00:08:55 10° E
Cosmos 2322 Rocket 4.4 00:04:18 10° SE 00:07:19 15° E 00:10:19 10° ENE
Cosmos 1898 Rocket 4.4 00:03:57 10° NW 00:08:43 34° WSW 00:11:42 19° SSW
STARLINK-1365 3.6 00:04:46 10° W 00:08:50 82° N 00:12:54 10° E
ERBS 3.7 00:06:34 10° W 00:08:52 21° SW 00:08:52 21° SW
STARLINK-41 4.0 00:09:04 25° SSE 00:09:33 26° SSE 00:12:13 10° E
USA 229 DEB 4.0 00:02:45 10° NW 00:09:57 79° NE 00:17:32 10° SE
USA 229 4.0 00:02:52 10° NW 00:10:03 79° NE 00:17:38 10° SE
NOSS 3-1 (C) 4.1 00:04:08 10° NW 00:11:23 85° NE 00:19:52 10° SE
Cosmos 1400 Rocket 3.1 00:07:44 10° N 00:11:54 68° ENE 00:15:19 14° SSE
Cosmos 2278 3.9 00:09:40 19° SSW 00:13:39 64° ESE 00:19:17 10° NE
ATLAS CENTAUR R/B 3.4 00:11:51 10° W 00:12:31 14° WSW 00:12:31 14° WSW
Cosmos 1697 Rocket 2.7 00:10:39 18° SSW 00:14:55 89° WNW 00:20:38 10° NNE
Cosmos 372 Rocket 3.9 00:12:25 10° NNW 00:17:34 75° WSW 00:22:10 13° SSE
GP-B 3.6 00:13:19 10° N 00:17:43 55° E 00:21:22 14° SSE
STARLINK-1284 4.5 00:16:34 22° S 00:17:48 27° SE 00:20:59 10° E
NOSS 3-1 (A) 4.3 00:11:43 10° NW 00:18:53 72° NE 00:27:17 10° SE
Cosmos-2242 3.1 00:14:56 10° NNW 00:19:09 63° W 00:21:58 20° S
Cosmos 1953 Rocket 3.8 00:16:05 18° S 00:19:14 63° E 00:23:35 10° NNE
STARLINK-1258 4.4 00:19:41 22° S 00:21:02 28° SE 00:24:16 10° E
STARLINK 1040 2.3 00:20:41 30° SW 00:21:42 58° SSE 00:24:14 10° E
Cosmos 2221 3.9 00:17:44 10° N 00:21:49 37° ENE 00:25:53 10° SE
Cosmos 2150 Rocket 3.9 00:16:54 10° NNW 00:22:07 88° WSW 00:27:16 10° SSE
Cosmos 2227 Rocket 3.6 00:18:09 10° NW 00:22:19 21° W 00:25:05 15° SW
STARLINK-1444 1.9 00:20:31 10° W 00:22:38 55° SSW 00:24:50 10° ESE
STARLINK-1452 1.9 00:21:09 10° W 00:23:14 54° SSW 00:25:27 10° ESE
STARLINK-55 3.6 00:22:38 26° SSW 00:23:53 37° SSE 00:26:53 10° E
Resurs 1-4 Rocket 3.0 00:19:04 10° NNE 00:24:07 43° E 00:28:42 12° SSE
STARLINK-1292 4.4 00:22:49 22° S 00:24:17 29° SE 00:27:33 10° E
STARLINK-1450 1.9 00:22:25 10° W 00:24:28 52° SSW 00:26:37 10° ESE
STARLINK-1436 (VISORSAT) 1.9 00:22:25 10° W 00:24:31 53° SSW 00:26:41 10° ESE
STARLINK-1392 1.9 00:22:32 10° W 00:24:35 52° SSW 00:26:44 10° ESE
STARLINK-1398 1.9 00:22:30 10° W 00:24:35 53° SSW 00:26:47 10° ESE
STARLINK-1399 1.9 00:22:33 10° W 00:24:35 52° SSW 00:26:45 10° ESE
STARLINK-1415 1.9 00:22:33 10° W 00:24:36 52° SSW 00:26:45 10° ESE
STARLINK-1414 1.9 00:22:31 10° W 00:24:36 53° SSW 00:26:47 10° ESE
STARLINK-1394 1.9 00:22:34 10° W 00:24:36 52° SSW 00:26:46 10° ESE
STARLINK-1395 1.9 00:22:34 10° W 00:24:36 52° SSW 00:26:46 10° ESE
STARLINK-1393 1.9 00:22:34 10° W 00:24:37 52° SSW 00:26:46 10° ESE
STARLINK-1416 1.9 00:22:32 10° W 00:24:37 53° SSW 00:26:48 10° ESE
STARLINK-1396 1.9 00:22:35 10° W 00:24:37 52° SSW 00:26:47 10° ESE
STARLINK-1397 1.9 00:22:35 10° W 00:24:37 52° SSW 00:26:47 10° ESE
STARLINK-1401 1.9 00:22:35 10° W 00:24:38 52° SSW 00:26:47 10° ESE
STARLINK-1408 1.9 00:22:34 10° W 00:24:38 53° SSW 00:26:49 10° ESE
STARLINK-1404 1.9 00:22:36 10° W 00:24:38 52° SSW 00:26:48 10° ESE
STARLINK-1419 1.9 00:22:34 10° W 00:24:39 53° SSW 00:26:50 10° ESE
STARLINK-1453 1.9 00:22:36 10° W 00:24:39 52° SSW 00:26:48 10° ESE
STARLINK-1402 1.9 00:22:37 10° W 00:24:40 52° SSW 00:26:49 10° ESE
STARLINK-1417 1.9 00:22:37 10° W 00:24:40 52° SSW 00:26:49 10° ESE
STARLINK-1413 1.9 00:22:38 10° W 00:24:41 52° SSW 00:26:50 10° ESE
STARLINK-1406 1.9 00:22:38 10° W 00:24:41 52° SSW 00:26:50 10° ESE
STARLINK-1420 1.9 00:22:36 10° W 00:24:41 53° SSW 00:26:52 10° ESE
STARLINK-1422 1.9 00:22:38 10° W 00:24:43 53° SSW 00:26:54 10° ESE
STARLINK-1460 1.9 00:22:37 10° W 00:24:43 53° SSW 00:26:54 10° ESE
STARLINK-1458 1.9 00:22:38 10° W 00:24:43 53° SSW 00:26:54 10° ESE
STARLINK-1440 1.9 00:22:40 10° W 00:24:43 52° SSW 00:26:52 10° ESE
STARLINK-1445 1.9 00:22:41 10° W 00:24:44 52° SSW 00:26:53 10° ESE
STARLINK-1443 1.9 00:22:42 10° W 00:24:45 52° SSW 00:26:54 10° ESE
STARLINK-1454 1.9 00:22:42 10° W 00:24:45 52° SSW 00:26:54 10° ESE
STARLINK-1437 1.9 00:22:40 10° W 00:24:45 53° SSW 00:26:56 10° ESE
STARLINK-1457 1.9 00:22:43 10° W 00:24:46 52° SSW 00:26:55 10° ESE
STARLINK-1456 1.9 00:22:43 10° W 00:24:46 52° SSW 00:26:55 10° ESE
STARLINK-1451 1.9 00:22:43 10° W 00:24:46 52° SSW 00:26:55 10° ESE
STARLINK-1446 1.9 00:22:41 10° W 00:24:47 53° SSW 00:26:58 10° ESE
STARLINK-1442 1.9 00:22:45 10° W 00:24:48 52° SSW 00:26:56 10° ESE
STARLINK-1447 1.9 00:22:43 10° W 00:24:49 53° SSW 00:27:01 10° ESE
STARLINK-1455 1.9 00:22:44 10° W 00:24:50 53° SSW 00:27:01 10° ESE
STARLINK-1405 1.9 00:22:47 10° W 00:24:50 52° SSW 00:26:59 10° ESE
STARLINK-1421 1.9 00:22:47 10° W 00:24:50 52° SSW 00:26:59 10° ESE
STARLINK-1423 1.9 00:22:45 10° W 00:24:50 53° SSW 00:27:01 10° ESE
STARLINK-1400 1.9 00:22:47 10° W 00:24:50 52° SSW 00:26:59 10° ESE
STARLINK-1410 1.9 00:22:47 10° W 00:24:50 52° SSW 00:26:59 10° ESE
STARLINK-1441 1.9 00:22:45 10° W 00:24:50 53° SSW 00:27:02 10° ESE
STARLINK-1407 1.9 00:22:48 10° W 00:24:51 52° SSW 00:27:00 10° ESE
STARLINK-1439 1.9 00:22:48 10° W 00:24:51 52° SSW 00:27:00 10° ESE
STARLINK-1449 1.9 00:22:46 10° W 00:24:51 53° SSW 00:27:03 10° ESE
STARLINK-1448 1.9 00:22:46 10° W 00:24:52 53° SSW 00:27:03 10° ESE
STARLINK-1409 1.9 00:22:49 10° W 00:24:52 52° SSW 00:27:01 10° ESE
STARLINK-1351 1.9 00:22:50 10° W 00:24:53 52° SSW 00:27:02 10° ESE
STARLINK-1370 1.9 00:22:50 10° W 00:24:53 52° SSW 00:27:02 10° ESE
STARLINK-1418 1.9 00:22:50 10° W 00:24:53 52° SSW 00:27:02 10° ESE
STARLINK-1434 1.9 00:22:50 10° W 00:24:53 52° SSW 00:27:02 10° ESE
STARLINK-1403 1.9 00:22:51 10° W 00:24:54 52° SSW 00:27:03 10° ESE
STARLINK-1433 1.9 00:22:52 10° W 00:24:55 52° SSW 00:27:04 10° ESE
STARLINK-1411 1.9 00:22:53 10° W 00:24:56 52° SSW 00:27:05 10° ESE
STARLINK-1438 1.9 00:22:53 10° W 00:24:57 52° SSW 00:27:06 10° ESE
STARLINK-1338 3.6 00:20:59 10° W 00:24:57 81° N 00:28:55 10° E
STARLINK-1412 1.9 00:22:53 10° W 00:24:59 53° SSW 00:27:11 10° ESE
STARLINK-1301 4.3 00:25:24 22° SSW 00:27:07 32° SSE 00:30:34 10° E
Cosmos 2227 4.2 00:21:28 10° NNW 00:27:15 88° WSW 00:33:02 10° SSE
STARLINK-1283 4.3 00:27:36 21° SSW 00:29:45 36° SSE 00:33:31 10° E
Cosmos 1814 Rocket 4.1 00:26:04 18° SSW 00:30:02 79° ESE 00:35:21 10° NNE
STARLINK-1289 4.3 00:29:05 21° SSW 00:30:46 32° SSE 00:34:07 10° E
IRAS Rocket 4.5 00:26:35 16° S 00:30:54 55° WSW 00:36:20 10° NNW
Cosmos 2074 Rocket 4.4 00:25:39 12° S 00:31:19 59° E 00:37:28 10° NNE
STARLINK-29 2.8 00:29:43 10° WNW 00:32:56 74° SSW 00:36:07 10° ESE
STARLINK-1371 3.6 00:29:07 10° W 00:33:06 81° N 00:37:04 10° E
STARLINK-1303 4.2 00:32:15 21° SSW 00:34:03 33° SSE 00:37:26 10° E
STARLINK-28 3.3 00:33:31 22° SW 00:35:14 45° SSE 00:38:19 10° E
STARLINK-26 3.5 00:33:54 21° SW 00:35:51 45° SSE 00:39:10 10° E
STARLINK-1341 3.6 00:33:14 10° W 00:37:12 81° N 00:41:11 10° E
STARLINK-1312 4.1 00:35:25 21° SSW 00:37:20 34° SSE 00:40:46 10° E
Cosmos 1125 Rocket 3.6 00:33:36 10° NNW 00:38:51 83° ENE 00:44:04 10° SSE
UNK 3.7 00:36:35 11° SSE 00:40:59 88° WSW 00:45:36 10° NNW
Iridium 2 4.5 00:37:33 10° N 00:41:14 48° E 00:44:54 10° SSE
STARLINK-1374 3.6 00:37:20 10° W 00:41:18 81° N 00:45:16 10° E
SL-16 R/B 3.5 00:36:41 10° SSE 00:41:35 31° ESE 00:46:29 10° NE
Cosmos 841 Rocket 3.6 00:37:44 17° SSW 00:41:51 76° WNW 00:47:05 10° NNE
Helios 1B rocket 3.7 00:38:45 10° N 00:42:25 31° WNW 00:45:37 12° WSW
GEOS 3 Rocket 3.6 00:37:40 10° SE 00:42:54 83° SW 00:48:16 10° NW
Cosmos 1570 Rocket 4.2 00:39:09 16° SW 00:43:25 68° WNW 00:48:42 10° NNE
STARLINK-1339 3.6 00:41:28 10° W 00:45:27 81° N 00:49:25 10° E
Cosmos 1315 Rocket 3.3 00:42:15 10° N 00:46:10 59° ENE 00:50:03 10° SSE
CZ-4C R/B 3.6 00:42:54 14° S 00:46:42 69° WSW 00:51:10 10° NNW
STARLINK-80 3.9 00:45:27 18° SSW 00:47:51 41° SSE 00:51:28 10° E
Cosmos 2298 Rocket 4.3 00:43:18 10° NNW 00:48:28 53° WSW 00:53:21 11° S
STARLINK-1377 3.6 00:45:38 10° W 00:49:37 82° N 00:53:35 10° E
STARLINK-33 3.1 00:47:58 19° SW 00:49:57 49° SSE 00:52:59 10° E
CZ-4C R/B 2.7 00:44:57 10° WSW 00:50:14 63° NW 00:56:38 10° NE
Cosmos 1763 Rocket 4.4 00:45:56 11° SW 00:50:28 41° NW 00:55:16 10° NNE
CZ-2D R/B 2.3 00:46:35 10° NNE 00:51:50 67° ESE 00:56:32 13° S
STARLINK-1320 2.9 00:49:20 10° W 00:52:28 85° N 00:55:37 10° E
STARLINK-1322 2.9 00:49:40 10° W 00:52:49 85° N 00:55:57 10° E
STARLINK-1324 2.9 00:50:01 10° W 00:53:09 85° N 00:56:17 10° E
STARLINK-1294 2.9 00:50:18 10° W 00:53:26 85° N 00:56:36 10° E
STARLINK-1353 3.6 00:49:46 10° W 00:53:45 83° N 00:57:44 10° E
STARLINK-1261 2.9 00:50:41 10° W 00:53:49 85° N 00:56:57 10° E
STARLINK-1325 2.9 00:51:02 10° W 00:54:10 86° NNE 00:57:18 10° E
STARLINK-1333 2.9 00:51:23 10° W 00:54:31 86° N 00:57:39 10° E
STARLINK-1334 2.9 00:51:42 10° W 00:54:51 86° N 00:57:58 10° E
Cosmos 1825 Rocket 4.2 00:51:55 15° SW 00:55:10 43° WNW 00:59:21 10° N
STARLINK-1326 2.8 00:52:03 10° W 00:55:11 86° N 00:58:20 10° E
Cosmos 2184 Rocket 4.1 00:49:34 12° S 00:55:14 81° E 01:01:26 10° NNE
STARLINK-1323 2.8 00:52:23 10° W 00:55:31 86° N 00:58:39 10° E
STARLINK-1349 2.8 00:52:42 10° W 00:55:50 86° N 00:58:58 10° E
STARLINK-1336 2.8 00:53:03 10° W 00:56:11 86° NNE 00:59:18 10° E
STARLINK-1331 2.8 00:53:24 10° W 00:56:33 87° NNE 00:59:40 10° E
STARLINK-1344 2.8 00:53:43 10° W 00:56:52 87° NNE 00:59:59 10° E
STARLINK-1343 2.8 00:54:04 10° W 00:57:13 87° NNE 01:00:20 10° E
STARLINK-1346 2.9 00:54:22 10° W 00:57:32 87° NNE 01:00:43 10° E
STARLINK-1328 2.8 00:54:46 10° W 00:57:54 87° NNE 01:01:02 10° E
STARLINK-1375 3.6 00:53:58 10° W 00:57:56 83° N 01:01:55 10° E
STARLINK-1354 2.8 00:55:06 10° W 00:58:14 87° NNE 01:01:21 10° E
STARLINK-1347 2.8 00:55:24 10° W 00:58:32 87° NNE 01:01:40 10° E
STARLINK-1357 2.8 00:55:46 10° W 00:58:55 88° NNE 01:02:03 10° E
STARLINK-1335 2.8 00:56:06 10° W 00:59:14 88° NNE 01:02:22 10° E
STARLINK-1327 2.8 00:56:27 10° W 00:59:35 88° NNE 01:02:42 10° E
STARLINK-1340 2.8 00:56:47 10° W 00:59:55 88° N 01:03:03 10° E
STARLINK-1356 2.8 00:57:08 10° W 01:00:15 88° N 01:03:24 10° E
STARLINK-1345 2.8 00:57:28 10° W 01:00:36 88° NNE 01:03:44 10° E
STARLINK-1355 2.8 00:57:47 10° W 01:00:55 88° NNE 01:04:03 10° E
Cosmos 2208 Rocket 4.4 00:56:35 14° SW 01:01:09 59° WNW 01:06:30 10° NNE
STARLINK-1321 2.8 00:58:07 10° W 01:01:15 89° N 01:04:23 10° E
STARLINK-1358 2.8 00:58:29 10° W 01:01:38 89° NNE 01:04:46 10° E
STARLINK-1332 2.8 00:58:47 10° W 01:01:55 89° N 01:05:03 10° E
STARLINK-1350 3.5 00:58:06 10° W 01:02:05 84° N 01:06:04 10° E
Lacrosse 4 Rocket 3.6 01:01:43 10° W 01:02:13 10° WSW 01:02:43 10° WSW
STARLINK-1348 2.8 00:59:08 10° W 01:02:15 89° N 01:05:24 10° E
STARLINK-1330 2.8 00:59:29 10° W 01:02:37 89° NNE 01:05:45 10° E
STARLINK-1363 2.8 00:59:47 10° W 01:02:55 89° NNW 01:06:03 10° E
STARLINK-1297 3.7 01:00:39 16° SW 01:03:14 45° SSE 01:06:40 10° E
STARLINK-1337 2.8 01:00:09 10° W 01:03:17 90° N 01:06:25 10° E
STARLINK-1342 2.8 01:00:30 10° W 01:03:38 90° NNE 01:06:46 10° E
STARLINK-66 3.0 01:01:12 14° WSW 01:03:50 60° SSE 01:07:00 10° E
STARLINK-1364 2.8 01:00:50 10° W 01:03:59 90° N 01:07:06 10° ESE
STARLINK-1376 2.8 01:01:10 10° W 01:04:19 90° W 01:07:26 10° ESE
STARLINK-1360 2.8 01:01:31 10° W 01:04:39 90° WSW 01:07:47 10° ESE
NOSS 2-1 (E) 4.5 01:02:28 12° S 01:04:57 26° ESE 01:08:05 10° ENE
STARLINK-1361 2.8 01:01:52 10° W 01:05:00 90° SE 01:08:08 10° ESE
STARLINK-1367 2.8 01:02:09 10° W 01:05:19 89° S 01:08:29 10° ESE
Cosmos 2360 Rocket 4.1 01:01:10 10° SSE 01:05:23 22° ESE 01:09:37 10° NE
STARLINK-1366 2.8 01:02:31 10° W 01:05:39 89° SSW 01:08:48 10° ESE
STARLINK-1268 3.2 01:04:05 16° SW 01:06:17 47° SSE 01:09:17 10° E
STARLINK-1352 3.5 01:02:21 10° W 01:06:19 85° N 01:10:18 10° E
STARLINK-52 3.0 01:05:11 10° W 01:08:20 55° SSW 01:11:29 10° SE
STARLINK-58 3.5 01:07:07 16° SW 01:09:18 39° SSE 01:12:19 10° E
STARLINK-1316 3.2 01:07:38 15° SW 01:10:00 49° SSE 01:13:03 10° E
STARLINK-1368 3.5 01:06:35 10° W 01:10:33 86° N 01:14:32 10° E
STARLINK-1257 3.2 01:08:29 15° SW 01:10:54 50° SSE 01:13:57 10° E
STARLINK-1256 3.1 01:09:23 15° SW 01:11:49 50° SSE 01:14:52 10° E
Cosmos 1980 Rocket 2.5 01:07:19 12° SW 01:12:29 65° NW 01:18:09 10° NNE
STARLINK-1213 3.1 01:10:16 14° SW 01:12:44 51° SSE 01:15:47 10° E
STARLINK-1263 3.1 01:11:07 14° SW 01:13:37 52° SSE 01:16:41 10° E
Cosmos 1455 4.4 01:13:16 10° WNW 01:14:32 11° W 01:15:48 10° WSW
STARLINK-1259 3.1 01:12:00 14° SW 01:14:32 52° SSE 01:17:36 10° E
STARLINK-1369 3.5 01:10:49 10° W 01:14:48 88° N 01:18:47 10° E
STARLINK-1265 3.1 01:12:24 14° SW 01:14:58 53° SSE 01:18:04 10° E
STARLINK-75 3.0 01:12:03 12° WSW 01:15:02 64° SSE 01:18:15 10° E
STARLINK-1285 3.1 01:12:51 14° SW 01:15:26 53° SSE 01:18:29 10° E
Meteor 1-11 4.5 01:11:52 13° SSW 01:16:52 60° WNW 01:22:25 10° N
STARLINK-1296 3.1 01:14:36 13° SW 01:17:13 54° SSE 01:20:18 10° E
STARLINK-1260 3.0 01:15:26 13° SW 01:18:06 55° SSE 01:21:10 10° E
CRYOSAT 2 4.4 01:13:09 10° N 01:18:06 88° W 01:22:59 10° S
STARLINK-1317 3.6 01:15:01 11° SW 01:18:36 58° SSE 01:22:24 10° ENE
STARLINK-1307 3.5 01:15:22 12° SW 01:18:38 55° SSE 01:22:14 10° ENE
SL-08 R/B 3.9 01:14:13 10° SSE 01:18:45 59° ENE 01:23:18 10° N
STARLINK-1318 3.0 01:16:19 13° SW 01:19:01 55° SSE 01:22:06 10° E
STARLINK-1372 3.5 01:15:04 10° W 01:19:03 89° N 01:23:02 10° E
STARLINK-1275 3.0 01:17:11 12° SW 01:19:56 56° SSE 01:23:01 10° E
STARLINK-1309 3.0 01:18:04 12° WSW 01:20:50 56° SSE 01:23:54 10° E
SL-4 R/B 2.9 01:16:57 10° W 01:21:24 37° SSW 01:25:41 10° SE
STARLINK-1282 3.0 01:18:56 12° WSW 01:21:43 57° SSE 01:24:48 10° E
STARLINK-1290 3.5 01:18:36 11° SW 01:21:59 57° SSE 01:25:36 10° ENE
STARLINK-1313 2.9 01:19:53 11° WSW 01:22:49 62° SSE 01:25:55 10° E
STARLINK-1272 3.3 01:19:57 11° WSW 01:23:16 58° SSE 01:26:46 10° ENE
STARLINK-1378 3.5 01:19:18 10° W 01:23:18 89° SSE 01:27:16 10° ESE
STARLINK-22 3.0 01:20:24 11° WSW 01:23:27 61° SSE 01:26:38 10° E
FALCON 9 DEB 3.1 01:20:03 10° WNW 01:23:28 62° SSW 01:26:54 10° ESE
BREEZE-M DEB (TANK) 2.8 01:22:09 15° SW 01:23:28 30° SSE 01:26:22 10° E
STARLINK-1279 2.9 01:20:47 11° WSW 01:23:45 62° SSE 01:26:51 10° E
STARLINK-1298 3.0 01:21:31 11° WSW 01:24:24 59° SSE 01:27:29 10° E
STARLINK-1293 3.0 01:22:22 11° WSW 01:25:18 59° SSE 01:28:22 10° E
Cosmos 2263 Rocket 2.7 01:21:30 10° NW 01:26:43 40° WSW 01:31:53 10° S
STARLINK-1255 3.0 01:24:08 11° WSW 01:27:08 60° SSE 01:30:13 10° E
STARLINK-1379 3.5 01:23:36 10° W 01:27:35 88° SSW 01:31:35 10° ESE
Cosmos 540 Rocket 4.4 01:24:04 10° WSW 01:28:51 38° NW 01:33:40 10° NNE
Meteor 1-28 Rocket 4.4 01:25:18 10° SE 01:28:52 44° ENE 01:32:27 10° N
Cosmos 2154 Rocket 4.1 01:23:06 10° S 01:29:22 88° W 01:35:38 10° N
SL-16 R/B 3.1 01:24:30 10° SSW 01:30:16 41° W 01:36:05 10° NNW
STARLINK-1329 3.5 01:26:56 10° W 01:30:56 86° SSW 01:34:56 10° ESE
ATLAS CENTAUR R/B 4.3 01:29:49 10° NNW 01:31:58 14° N 01:34:03 10° NE
H-2A R/B 3.5 01:27:55 10° SE 01:32:07 42° ENE 01:36:23 10° N
Cosmos 1076 Rocket 3.8 01:28:39 10° S 01:32:59 69° E 01:37:21 10° NNE
ADEOS II 2.4 01:29:57 10° NNE 01:35:13 66° ESE 01:40:26 10° S
STARLINK-1362 3.5 01:31:15 10° W 01:35:16 84° SSW 01:39:17 10° ESE
Cosmos 1869 3.6 01:32:24 10° NNW 01:36:08 46° W 01:39:49 10° SSW
STARLINK-1291 3.3 01:32:30 10° WSW 01:36:09 67° SSE 01:39:49 10° ENE
STARLINK-43 3.4 01:32:30 10° W 01:36:11 84° N 01:39:54 10° E
NPP 3.8 01:30:59 10° N 01:36:20 66° WNW 01:41:40 10° SSW
STARLINK-60 4.2 01:34:05 10° W 01:36:35 21° SW 01:39:04 10° SSE
STARLINK-1311 2.7 01:34:50 10° WSW 01:37:46 73° SSE 01:40:44 10° E
Cosmos 2151 4.4 01:34:00 10° SSE 01:37:55 36° E 01:41:52 10° NNE
Cosmos 1844 4.4 01:32:25 10° NNW 01:38:12 62° NE 01:43:56 10° SE
STARLINK-42 2.8 01:35:19 10° WSW 01:38:28 80° SSE 01:41:38 10° E
STARLINK-1029 3.3 01:35:36 10° SW 01:38:36 48° SSE 01:41:41 10° E
STARLINK-1264 3.3 01:35:39 10° WSW 01:39:18 69° SSE 01:42:59 10° ENE
STARLINK-1373 3.5 01:35:38 10° WNW 01:39:38 82° SSW 01:43:39 10° ESE
CZ-4B R/B 3.7 01:34:35 10° NNE 01:39:49 71° WNW 01:45:04 10° SSW
IDEFIX/ARIANE 42P 4.4 01:35:49 10° NNE 01:40:22 28° E 01:44:52 10° SSE
Cosmos 1892 2.7 01:37:29 10° S 01:41:17 84° E 01:45:05 10° NNE
STARLINK-1274 3.2 01:38:35 10° WSW 01:42:06 70° SSE 01:45:39 10° ENE
STARLINK-1267 3.3 01:38:49 10° WSW 01:42:30 71° SSE 01:46:12 10° ENE
IRIDIUM 106 4.4 01:37:58 10° S 01:43:11 85° W 01:48:27 10° N
STARLINK-34 2.9 01:40:24 10° WSW 01:43:27 60° SSE 01:46:30 10° E
STARLINK-1390 3.5 01:40:00 10° WNW 01:44:01 80° SSW 01:48:01 10° ESE
ERS-2 2.8 01:40:31 10° SSE 01:44:07 59° ENE 01:47:45 10° N
IRS-1D 3.6 01:39:32 10° NNE 01:44:52 87° WNW 01:50:04 10° SSW
STARLINK-41 2.8 01:41:50 10° WSW 01:44:56 83° SSE 01:48:03 10° E
STARLINK-62 2.9 01:42:45 10° WSW 01:45:49 62° SSE 01:48:54 10° E
IRS-1C 4.5 01:41:00 10° NNE 01:46:20 67° ESE 01:51:38 10° S
STARLINK-1365 3.5 01:44:02 10° WNW 01:48:05 78° SSW 01:52:07 10° ESE
STARLINK-1207 3.3 01:45:14 10° WSW 01:48:56 75° SSE 01:52:38 10° ENE
STARLINK-1308 4.5 01:45:56 10° SW 01:49:45 37° SSE 01:53:36 10° E
Cosmos 2322 Rocket 2.3 01:44:49 10° SSW 01:50:25 76° ESE 01:56:04 10° NNE
Nadezhda 3 Rocket 4.4 01:45:02 10° NNW 01:51:06 51° W 01:57:11 10° SSW
BREEZE-M R/B 2.5 01:47:21 10° W 01:51:15 46° SSW 01:53:47 10° ESE
STARLINK-1266 3.3 01:48:28 10° WSW 01:52:10 77° SSE 01:55:53 10° ENE
In-Cosmos 22 Rocket 4.2 01:46:58 10° SSW 01:52:35 81° WNW 01:58:04 10° NNE
ARIANE 5 R/B 3.0 01:48:19 10° NNE 01:53:18 58° ESE 01:58:13 10° S
STARLINK-64 3.6 01:50:25 10° SW 01:53:53 49° SSE 01:57:23 10° E
STARLINK-1284 3.3 01:51:42 10° WSW 01:55:25 78° SSE 01:59:08 10° ENE
STARLINK 1040 2.5 01:53:04 10° W 01:55:38 75° N 01:58:12 10° E
STARLINK-1444 4.2 01:55:10 10° WSW 01:56:03 12° SW 01:56:57 10° SSW
STARLINK-1452 4.2 01:55:48 10° WSW 01:56:39 11° SW 01:57:31 10° SSW
STARLINK-1450 4.2 01:57:13 10° SW 01:57:51 11° SW 01:58:29 10° SSW
STARLINK-1436 (VISORSAT) 4.2 01:57:12 10° SW 01:57:56 11° SW 01:58:40 10° SSW
STARLINK-1392 4.2 01:57:21 10° SW 01:57:59 11° SW 01:58:36 10° SSW
STARLINK-1399 4.2 01:57:21 10° SW 01:57:59 11° SW 01:58:37 10° SSW
STARLINK-1415 4.2 01:57:22 10° SW 01:58:00 11° SW 01:58:37 10° SSW
STARLINK-1394 4.2 01:57:22 10° SW 01:58:00 11° SW 01:58:38 10° SSW
STARLINK-1414 4.2 01:57:16 10° SW 01:58:00 11° SW 01:58:44 10° SSW
STARLINK-1398 4.2 01:57:15 10° SW 01:58:00 11° SW 01:58:45 10° SSW
STARLINK-1395 4.2 01:57:22 10° SW 01:58:00 11° SW 01:58:38 10° SSW
STARLINK-1393 4.2 01:57:23 10° SW 01:58:00 11° SW 01:58:38 10° SSW
STARLINK-1416 4.2 01:57:17 10° SW 01:58:01 11° SW 01:58:45 10° SSW
STARLINK-1396 4.2 01:57:23 10° SW 01:58:01 11° SW 01:58:39 10° SSW
STARLINK-1397 4.2 01:57:23 10° SW 01:58:01 11° SW 01:58:39 10° SSW
STARLINK-1401 4.2 01:57:24 10° SW 01:58:01 11° SW 01:58:39 10° SSW
STARLINK-1404 4.2 01:57:24 10° SW 01:58:02 11° SW 01:58:40 10° SSW
STARLINK-1408 4.2 01:57:19 10° SW 01:58:02 11° SW 01:58:45 10° SSW
STARLINK-1453 4.2 01:57:25 10° SW 01:58:02 11° SW 01:58:40 10° SSW
STARLINK-1419 4.2 01:57:19 10° SW 01:58:03 11° SW 01:58:47 10° SSW
STARLINK-1402 4.2 01:57:26 10° SW 01:58:03 11° SW 01:58:41 10° SSW
STARLINK-1417 4.2 01:57:26 10° SW 01:58:03 11° SW 01:58:41 10° SSW
STARLINK-1413 4.2 01:57:27 10° SW 01:58:04 11° SW 01:58:42 10° SSW
STARLINK-1406 4.2 01:57:27 10° SW 01:58:05 11° SW 01:58:42 10° SSW
STARLINK-1420 4.2 01:57:21 10° SW 01:58:05 11° SW 01:58:51 10° SSW
STARLINK-1440 4.2 01:57:29 10° SW 01:58:06 11° SW 01:58:44 10° SSW
STARLINK-1422 4.2 01:57:23 10° SW 01:58:07 11° SW 01:58:51 10° SSW
STARLINK-1445 4.2 01:57:29 10° SW 01:58:07 11° SW 01:58:45 10° SSW
STARLINK-1460 4.2 01:57:23 10° SW 01:58:07 11° SW 01:58:52 10° SSW
STARLINK-1458 4.2 01:57:24 10° SW 01:58:08 11° SW 01:58:52 10° SSW
STARLINK-1443 4.2 01:57:31 10° SW 01:58:08 11° SW 01:58:46 10° SSW
STARLINK-1454 4.2 01:57:31 10° SW 01:58:08 11° SW 01:58:46 10° SSW
STARLINK-1456 4.2 01:57:32 10° SW 01:58:09 11° SW 01:58:47 10° SSW
STARLINK-1451 4.2 01:57:33 10° SW 01:58:09 11° SW 01:58:47 10° SSW
STARLINK-1457 4.2 01:57:32 10° SW 01:58:09 11° SW 01:58:46 10° SSW
STARLINK-1437 4.2 01:57:28 10° SW 01:58:11 11° SW 01:58:54 10° SSW
STARLINK-1442 4.2 01:57:34 10° SW 01:58:11 11° SW 01:58:48 10° SSW
STARLINK-1446 4.2 01:57:27 10° SW 01:58:11 11° SW 01:58:56 10° SSW
STARLINK-1405 4.2 01:57:37 10° SW 01:58:13 11° SW 01:58:51 10° SSW
STARLINK-1421 4.2 01:57:37 10° SW 01:58:13 11° SW 01:58:51 10° SSW
STARLINK-1400 4.2 01:57:38 10° SW 01:58:14 11° SW 01:58:51 10° SSW
STARLINK-1410 4.2 01:57:38 10° SW 01:58:14 11° SW 01:58:51 10° SSW
STARLINK-1423 4.2 01:57:31 10° SW 01:58:14 11° SW 01:58:58 10° SSW
STARLINK-1447 4.2 01:57:30 10° SW 01:58:14 11° SW 01:59:00 10° SSW
STARLINK-1407 4.2 01:57:38 10° SW 01:58:14 11° SW 01:58:51 10° SSW
STARLINK-1455 4.2 01:57:30 10° SW 01:58:15 11° SW 01:59:00 10° SSW
STARLINK-1439 4.2 01:57:38 10° SW 01:58:15 11° SW 01:58:52 10° SSW
STARLINK-1409 4.2 01:57:39 10° SW 01:58:15 11° SW 01:58:52 10° SSW
STARLINK-1441 4.2 01:57:31 10° SW 01:58:15 11° SW 01:59:01 10° SSW
STARLINK-1351 4.2 01:57:40 10° SW 01:58:16 11° SW 01:58:53 10° SSW
STARLINK-1370 4.2 01:57:40 10° SW 01:58:16 11° SW 01:58:53 10° SSW
STARLINK-1418 4.2 01:57:40 10° SW 01:58:17 11° SW 01:58:53 10° SSW
STARLINK-1434 4.2 01:57:40 10° SW 01:58:17 11° SW 01:58:54 10° SSW
STARLINK-1448 4.2 01:57:32 10° SW 01:58:17 11° SW 01:59:02 10° SSW
STARLINK-1449 4.2 01:57:32 10° SW 01:58:17 11° SW 01:59:02 10° SSW
STARLINK-1403 4.2 01:57:41 10° SW 01:58:18 11° SW 01:58:54 10° SSW
STARLINK-1433 4.2 01:57:43 10° SW 01:58:18 11° SW 01:58:55 10° SSW
STARLINK-1411 4.2 01:57:44 10° SW 01:58:20 11° SW 01:58:56 10° SSW
STARLINK-1438 4.2 01:57:44 10° SW 01:58:20 11° SW 01:58:57 10° SSW
STARLINK-1412 4.2 01:57:41 10° SW 01:58:25 11° SW 01:59:09 10° SSW
STARLINK-1258 3.3 01:54:57 10° WSW 01:58:40 80° SSE 02:02:24 10° ENE
Cosmos 2221 3.6 01:55:32 10° NNW 01:59:17 28° W 02:03:01 10° SSW
STARLINK-1278 4.2 01:55:14 10° SW 01:59:19 46° SSE 02:03:24 10° ENE
STARLINK-1304 4.3 01:55:44 10° SW 01:59:38 41° SSE 02:03:33 10° E
Cosmos 1697 Rocket 4.4 01:55:01 10° W 01:59:41 25° NW 02:04:22 10° NNE
STARLINK-55 3.0 01:56:37 10° W 01:59:50 85° N 02:03:03 10° E
USA 229 DEB 4.5 01:54:05 10° NW 02:00:31 35° WSW 02:07:09 10° S
USA 229 4.5 01:54:12 10° NW 02:00:37 35° WSW 02:07:17 10° S
STARLINK-1280 4.2 01:57:04 10° SW 02:01:09 47° SSE 02:05:15 10° ENE
